Simultaneous Nadir Overpasses (SNOs) Predictions

Prediction of SNOs between GOES-16 and TERRA Satellite Orbit:

Table of predicted SNOs for the next 14.0 days since TLE Epoch: 2/18/2017
Index Date Time (GOES-16) GOES-16 Lat,Lon TERRA Lat,Lon Distance(km) Time Diff (sec)
1 02/19/2017 16:16:07 -0.00, -89.50 -0.67, -86.25 368.97 80
2 02/20/2017 04:37:31 0.00, -89.46 -0.39, -91.45 225.56 80
3 02/22/2017 04:22:40 -0.00, -89.46 0.23, -88.50 110.29 80
4 02/22/2017 16:43:56 0.00, -89.50 0.86, -93.66 472.33 80
5 02/24/2017 04:10:30 -0.00, -89.47 0.83, -85.54 446.17 80
6 02/24/2017 16:31:45 0.00, -89.50 0.26, -90.70 136.35 80
7 02/26/2017 16:22:15 0.00, -89.51 -0.38, -87.76 199.77 80
8 02/27/2017 04:43:39 -0.00, -89.48 -0.75, -92.94 394.18 80
9 03/01/2017 04:31:29 -0.00, -89.49 -0.12, -90.00 57.99 80
10 03/03/2017 04:16:40 -0.00, -89.50 0.55, -87.06 278.24 80
11 03/03/2017 16:37:56 0.00, -89.53 0.57, -92.21 304.68 80




NCC Satellite Simultaneous Nadir Overpasses (SNOs) Prediction Service
